Location: Austin
(30.3000°N, 97.7500°W)
Time: 00:37:06
(UTC-06:00)

Cosmos 2242 Rocket - Pass Details

Date: 04 November 2025
Orbit: 613 x 645 km, 82.5° (Epoch: 15 November)

Event Time Altitude Azimuth Distance (km) Brightness Sun altitude
Rises 18:01:15 0° 355° (N) 2,921 6.9 -5.1°
Reaches altitude 10° 18:03:29 10° 356° (N) 2,016 6.1 -5.5°
Maximum altitude 18:07:58 82° 83° (E) 646 3.6 -6.5°
Drops below altitude 10° 18:12:28 10° 172° (S) 2,022 6.3 -7.4°
Sets 18:14:42 0° 173° (S) 2,931 7.1 -7.9°
